Meteo Giornale » Osservazioni meteo Gran Bretagna » Manchester

ore: 15:50 - Osservazioni Meteo Manchester
Lat. 53° 21' N Lon. 2° 17' W Alt. 69 metri s.l.m.

nuvoloso Europe/London

22 °C

Nuvoloso

Temp. 24 Ore

11 °C

22 °C

Ovest/Nord-Ovest

25.9 Km/h

Dew point 16 °C

Umidità 68 %

Visibilità  10 Km

Il sole sorge alle ore 06:57

Il sole tramonta alle ore 19:04

Data e Ora Cielo e Fenomeni T °C DP °C Um. % Pres. hPa Vis. km Vento km/h
Oggi h: 15:50 nuvoloso Nuvoloso 22 16 68 1013 10 O/NO 25.9
Oggi h: 15:20 molto_nuvoloso Molto Nuvoloso 22 16 68 1013 10 O 25.9
Oggi h: 14:50 molto_nuvoloso Molto Nuvoloso 21 16 73 1013 10 O 25.9
Oggi h: 13:50 coperto Coperto 21 16 73 1013 10 O 24
Oggi h: 13:20 molto_nuvoloso Molto Nuvoloso 20 16 77 1013 10 O 25.9
Oggi h: 12:50 coperto Coperto 19 16 82 1013 10 O 24
Oggi h: 12:20 coperto Coperto 18 16 88 1013 10 O/SO 13
Oggi h: 11:50 coperto Coperto 17 15 88 1014 10 SO 11.1
Oggi h: 11:20 coperto_pioggia Pioggia Debole 16 14 87 1014 8 SO 9.3
Oggi h: 10:50 coperto Coperto 16 13 82 1013 10 S 9.3
Oggi h: 10:20 coperto Coperto 15 13 87 1013 10 S 11.1
Oggi h: 09:50 coperto Coperto 15 13 87 1013 10 S 9.3
Oggi h: 09:20 coperto Coperto 14 12 87 1013 10 S/SO 9.3
Oggi h: 08:20 coperto Coperto 13 12 93 1013 10 S 9.3
Oggi h: 07:50 coperto Coperto 13 11 87 1014 10 S 9.3
Oggi h: 07:20 molto_nuvoloso Molto Nuvoloso 12 11 93 1014 10 S 9.3
Oggi h: 06:50 coperto Coperto 12 11 93 1014 10 S 7.4
Oggi h: 06:20 coperto Coperto 12 11 93 1014 10 S 7.4
Oggi h: 05:50 coperto Coperto 12 11 93 1015 10 S 7.4
Oggi h: 05:20 poco_nuvoloso Poco Nuvoloso 11 10 93 1015 10 S 7.4
Oggi h: 04:50 nuvoloso Nuvoloso 11 10 93 1015 10 S 7.4
Oggi h: 04:20 molto_nuvoloso Molto Nuvoloso 11 10 93 1015 10 S 7.4
Oggi h: 03:50 molto_nuvoloso Molto Nuvoloso 11 11 100 1015 10 N 5.5
Oggi h: 03:20 sereno Sereno 11 11 100 1016 10 S 7.4
Oggi h: 02:50 sereno Sereno 11 11 100 1016 10 N 5.5
Oggi h: 02:20 poco_nuvoloso Poco Nuvoloso 12 11 93 1016 10 S 7.4
Oggi h: 01:50 molto_nuvoloso Molto Nuvoloso 13 12 93 1017 10 N 5.5
Oggi h: 01:20 coperto Coperto 13 12 93 1017 10 N 5.5
Oggi h: 00:50 coperto Coperto 13 12 93 1017 10 S/SO 7.4
Oggi h: 00:20 molto_nuvoloso Molto Nuvoloso 13 12 93 1018 10 N 5.5
Ieri h: 23:50 molto_nuvoloso Molto Nuvoloso 14 12 87 1018 10 N 5.5
Ieri h: 22:50 coperto Coperto 14 13 93 1018 10 N 3.7
Ieri h: 22:20 coperto Coperto 14 13 93 1018 10 N 3.7
Ieri h: 21:20 molto_nuvoloso Molto Nuvoloso 14 13 93 1019 10 N 3.7
Ieri h: 20:50 coperto Coperto 14 13 93 1019 10 N 3.7
Ieri h: 20:20 molto_nuvoloso Molto Nuvoloso 15 12 82 1019 10 N 3.7
Ieri h: 19:50 molto_nuvoloso Molto Nuvoloso 15 12 82 1019 10 O/NO 7.4
Ieri h: 19:20 molto_nuvoloso Molto Nuvoloso 15 12 82 1019 10 O/NO 7.4
Ieri h: 18:50 molto_nuvoloso Molto Nuvoloso 15 12 82 1019 10 N 5.5
Ieri h: 18:20 poco_nuvoloso Poco Nuvoloso 15 12 82 1019 10 O/NO 11.1
Ieri h: 17:50 nuvoloso Nuvoloso 15 12 82 1019 10 O/NO 14.8
Ieri h: 17:20 molto_nuvoloso Molto Nuvoloso 15 12 82 1019 10 O/NO 18.5
Ieri h: 16:50 molto_nuvoloso Molto Nuvoloso 15 12 82 1019 10 O 18.5